Livermore, CA

8:54 AM PDT on May 24, 2018 (GMT -0700)
Livermore Municipal

Weather History for KLVK - July, 2014

Change the Weather History Date:

Saturday, July 5, 2014

  Actual Average Record
Temperature  
Mean Temperature 74 °F 72 °F  
Max Temperature 94 °F 87 °F 106 °F (1940)
Min Temperature 54 °F 57 °F 45 °F (1977)
Cooling Degree Days 9 7  
Month to date cooling degree days 42 32  
Year to date cooling degree days 361 195  
Since 1 June cooling degree days 235 142  
Growing Degree Days 24 (Base 50)    
Moisture  
Dew Point 43 °F    
Average Humidity 51    
Maximum Humidity 93    
Minimum Humidity 8    
Precipitation  
Precipitation 0.00 in 0.00 in 0.00 in (2018)
Month to date precipitation 0.00 0.00  
Year to date precipitation 4.88 9.90  
Since 1 July precipitation 0.00  
Sea Level Pressure  
Sea Level Pressure 30.00 in    
Wind  
Wind Speed 7 mph (WNW)    
Max Wind Speed 18 mph    
Max Gust Speed 22 mph    
Visibility 10 miles    
Events      
T = Trace of Precipitation, MM = Missing Value Source: NWS Daily Summary

Daily Weather History Graph

Daily Weather History Graph

Search for Another Location

Airport or City:

Astronomy

Jul. 05, 2014 Rise Set
Actual Time 5:51 AM PDT 8:32 PM PDT
Civil Twilight 5:20 AM PDT 9:03 PM PDT
Nautical Twilight 4:41 AM PDT 9:41 PM PDT
Astronomical Twilight 3:58 AM PDT 10:25 PM PDT
Moon 1:41 PM PDT (7/5) 12:36 AM PDT (7/5)
Length of Visible Light 15h 42m
Length of Day
14h 40m
First Quarter, 53% of the Moon is Illuminated
Jul 5
First Quarter
Jul 12
Full
Jul 18
Last Quarter
Jul 26
New
Aug 3
First Quarter

Hourly Weather History & Observations

Time (PDT) Temp. Dew Point Humidity Pressure Visibility Wind Dir Wind Speed Gust Speed Precip Events Conditions
12:53 AM 59.0 °F 50.0 °F 72% 29.98 in 10.0 mi West 6.9 mph - N/A   Clear
1:53 AM 57.9 °F 48.9 °F 72% 29.98 in 10.0 mi WNW 3.5 mph - N/A   Clear
2:53 AM 57.0 °F 50.0 °F 77% 29.99 in 10.0 mi SW 3.5 mph - N/A   Clear
3:53 AM 55.9 °F 50.0 °F 80% 29.99 in 10.0 mi WNW 4.6 mph - N/A   Clear
4:53 AM 55.0 °F 51.1 °F 86% 29.99 in 10.0 mi NW 4.6 mph - N/A   Clear
5:53 AM 54.0 °F 51.1 °F 90% 30.01 in 9.0 mi NW 3.5 mph - N/A   Clear
6:53 AM 55.9 °F 52.0 °F 87% 30.03 in 7.0 mi NNW 3.5 mph - N/A   Clear
7:53 AM 60.1 °F 52.0 °F 75% 30.04 in 8.0 mi NW 3.5 mph - N/A   Clear
8:53 AM 63.0 °F 52.0 °F 67% 30.05 in 10.0 mi Calm Calm - N/A   Clear
9:53 AM 70.0 °F 52.0 °F 53% 30.04 in 10.0 mi Variable 3.5 mph - N/A   Clear
10:53 AM 78.1 °F 46.9 °F 33% 30.04 in 10.0 mi Variable 6.9 mph - N/A   Clear
11:53 AM 82.9 °F 48.9 °F 31% 30.02 in 10.0 mi Calm Calm - N/A   Clear
12:53 PM 90.0 °F 19.0 °F 7% 30.01 in 10.0 mi West 9.2 mph - N/A   Clear
1:53 PM 91.9 °F 30.0 °F 11% 30.00 in 10.0 mi WNW 10.4 mph - N/A   Clear
2:53 PM 93.0 °F 34.0 °F 12% 29.99 in 10.0 mi NW 13.8 mph - N/A   Clear
3:53 PM 93.0 °F 34.0 °F 12% 29.98 in 10.0 mi West 16.1 mph - N/A   Clear
4:53 PM 93.0 °F 33.1 °F 12% 29.98 in 10.0 mi WNW 16.1 mph - N/A   Clear
5:53 PM 90.0 °F 28.0 °F 11% 29.97 in 10.0 mi WNW 17.3 mph - N/A   Clear
6:53 PM 87.1 °F 30.9 °F 13% 29.97 in 10.0 mi WNW 13.8 mph - N/A   Clear
7:53 PM 81.0 °F 34.0 °F 18% 29.98 in 10.0 mi West 9.2 mph - N/A   Clear
8:53 PM 77.0 °F 36.0 °F 23% 29.99 in 10.0 mi WNW 3.5 mph - N/A   Clear
9:53 PM 71.1 °F 45.0 °F 39% 30.00 in 10.0 mi WNW 3.5 mph - N/A   Clear
10:53 PM 69.1 °F 46.9 °F 45% 30.01 in 10.0 mi WNW 6.9 mph - N/A   Clear
11:53 PM 66.0 °F 46.0 °F 48% 30.01 in 10.0 mi NW 5.8 mph - N/A   Clear